Flag for Lebanon Weather past 2 weeks in Sidon, Lebanon

Now
57 °F

Clear.


Feels Like: 56 °F
Forecast: 59 / 69 °F
Wind: 6 mph from East

Location: Beirut Airport

Current Time: Dec 26, 2014 at 12:52:59 AM

Latest Report: Dec 26, 2014 at 12:00 AM


Visibility: N/A

Pressure: 30.15 "Hg

Humidity: 48%

Dew point: 37 °F

Location of SidonLocation

Historic Weather in Sidon — Graph

°F

Sidon temperature yesterday

Maximum temperature yesterday: 66 °F (at 12:00 PM)
Minimum temperature yesterday: 55 °F (at 3:00 AM)
Average temperature yesterday: 60 °F

Past Weeks' High & Low Weather Summary

 TemperatureHumidityPressure
High79 °F (Dec 12, 12:00 PM)88% (Dec 12, 8:00 PM)30.36 "Hg (Dec 12, 8:00 PM)
Low55 °F (Dec 21, 2:00 AM)33% (Dec 11, 12:00 PM)29.89 "Hg (Dec 12, 12:00 PM)
Average62 °F61%30.16 "Hg
* Reported Dec 10 11:00 PM — Dec 25 11:00 PM, Sidon, Weather by CustomWeather, © 2014

Note: Actual official high and low records may vary slightly from our data, if they occured in-between our weather recording intervals... More about our weather records

Advertising

Sidon weather history for previous 24 hours

 ConditionsComfort  
Time TempWeatherWind HumidityBarometerVisibility
11:00 PM
Dec 25
57 °FPassing clouds.3 mph55%30.18 "HgN/A
10:00 PM57 °FClear.5 mph55%30.18 "Hg10 mi
9:00 PM59 °FClear.3 mph51%30.18 "Hg10 mi
8:00 PM59 °FClear.5 mph55%30.21 "Hg10 mi
7:00 PM59 °FClear.6 mph55%30.21 "Hg10 mi
6:00 PM61 °FClear.5 mph59%30.21 "Hg10 mi
5:00 PM63 °FClear.5 mph59%30.21 "HgN/A
4:00 PM64 °FSunny.6 mph60%30.21 "Hg10 mi
3:00 PM66 °FPassing clouds.7 mph60%30.21 "HgN/A
2:00 PM66 °FSunny.7 mph56%30.24 "Hg10 mi
1:00 PM66 °FPassing clouds.6 mph49%30.24 "HgN/A
12:00 PM66 °FPassing clouds.5 mph46%30.27 "HgN/A
11:00 AM64 °FPassing clouds.5 mph49%30.30 "HgN/A
10:00 AM64 °FSunny.2 mph43%30.30 "Hg10 mi
9:00 AM61 °FPassing clouds.2 mph45%30.33 "Hg5 mi
8:00 AM57 °FPassing clouds.5 mph51%30.30 "HgN/A
7:00 AM55 °FPassing clouds.6 mph51%30.30 "Hg5 mi
6:00 AM55 °FPassing clouds.6 mph51%30.30 "Hg5 mi
5:00 AM55 °FPassing clouds.6 mph55%30.30 "Hg5 mi
4:00 AM55 °FPassing clouds.6 mph55%30.30 "HgN/A
3:00 AM55 °FPassing clouds.5 mph59%30.33 "HgN/A
2:00 AM57 °FPassing clouds.3 mph55%30.33 "HgN/A
1:00 AM57 °FPassing clouds.6 mph59%30.33 "HgN/A
12:00 AM57 °FPassing clouds.6 mph63%30.36 "HgN/A
Weather by CustomWeather, © 2014

See weather overviewHow to use our weather pages